Regional Weather Roundup
Issued by NWS

Current Version | Previous Version | Text Only | Print | Product List | Glossary On
Versions: 1 2 3 4 5 6 7 8 9 10 11 12 13 14 15 16 17 18 19 20 21 22 23 24 25 26 27 28 29 30 31 32 33 34 35 36 37 38 39 40 41 42 43 44 45 46 47 48 49 50
000
ASUS44 KOUN 011900
RWROK

WEATHER ROUNDUP FOR OKLAHOMA
NATIONAL WEATHER SERVICE NORMAN OK
200 PM CDT MON SEP 01 2014

NOTE: "FAIR" INDICATES FEW OR NO CLOUDS BELOW 12,000 FEET WITH NO
      SIGNIFICANT WEATHER AND/OR OBSTRUCTIONS TO VISIBILITY.

OKZ001>007-009>012-014-015-017-012000-
NORTHWEST OKLAHOMA AND THE PANHANDLE

CITY           SKY/WX    TMP DP  RH WIND       PRES   REMARKS
GAGE           SUNNY     85  66  53 CALM      29.85F
ENID/WOODRING  PTSUNNY   93  68  43 S17G26    29.79F HX  97
$$

OKZ016-021>023-033>039-044-045-012000-
SOUTHWEST OKLAHOMA

CITY           SKY/WX    TMP DP  RH WIND       PRES   REMARKS
LAWTON/REGL    SUNNY     96  68  39 S17G30    29.82F HX 101
LAWTON/FT SILL SUNNY     96  70  42 S15G26    29.82F HX 101
CLINTON        SUNNY     97  65  34 SW18      29.85F HX  99
$$

OKZ018>020-024>031-012000-
CENTRAL OKLAHOMA

CITY           SKY/WX    TMP DP  RH WIND       PRES   REMARKS
OKLAHOMA CITY  MOSUNNY   94  68  42 S21G31    29.83F HX  98
OKC/WILEY POST MOSUNNY   95  70  44 S21G26    29.83F HX 101
OKC/TINKER AFB SUNNY     94  70  46 S20G28    29.84F HX 100
STILLWATER     CLOUDY    93  70  46 S20G30    29.82F HX  99
GUTHRIE        PTSUNNY   93  70  46 S17G25    29.82F HX  99
$$

OKZ008-013-054>072-012000-
NORTHEAST OKLAHOMA

CITY           SKY/WX    TMP DP  RH WIND       PRES   REMARKS
TULSA          MOSUNNY   92  71  50 S20G28    29.81F HX  98
TULSA/JONES    MOSUNNY   94  71  47 S16G26    29.82F HX 101
PONCA CITY     CLOUDY    85  71  63 SE13      29.83F HX  90
BARTLESVILLE   PTSUNNY   86  72  62 SE14      29.86F HX  92
MUSKOGEE       SUNNY     88  71  57 S12       29.88F HX  94
$$

OKZ032-040>043-046>053-073>077-012000-
SOUTH CENTRAL/SOUTHEAST OKLAHOMA

CITY           SKY/WX    TMP DP  RH WIND       PRES   REMARKS
MCALESTER      MOSUNNY   90  73  57 S10G21    29.90F HX  98
$$




USA.gov is the U.S. government's official web portal to all federal, state and local government web resources and services.